Location: Newark
(48.9320°N, 2.2664°E)
Time: 06:58:16
(UTC+00:00)

deb Explorer IX - Visible Passes

Search period start: 25 February 2020 00:00
Search period end: 06 March 2020 00:00
Orbit: 549 x 1099 km, 38.8° (Epoch: 24 February)

Date Brightness Start Highest point End Pass type
(mag) Time Alt. Az. Time Alt. Az. Time Alt. Az.
02 Mar ? 05:42:57 10° SSE 05:44:26 11° SSE 05:45:53 10° SE visible
03 Mar ? 05:19:58 10° S 05:22:03 12° SSE 05:24:02 10° SE visible
04 Mar ? 04:57:07 10° S 04:59:39 13° SSE 05:02:03 10° SE visible
05 Mar ? 04:34:18 10° S 04:37:15 14° SSE 04:40:01 10° SE visible
